Location: Little Smith Valley
(38.5430°N, 119.2952°W)
Time: 17:53:28
(UTC+00:00)

Daily predictions for brighter satellites

Satellite Brightness Start Highest point End
(mag) Time Altitude Azimuth Time Altitude Azimuth Time Altitude Azimuth
deb Chang Zheng 4 4.2 12:00:51 10° N 12:04:35 37° WNW 12:04:35 37° WNW
STARLINK-1025 3.5 12:04:32 55° SW 12:05:23 86° SE 12:09:32 10° NE
Cosmos 2219 Rocket 2.1 12:00:20 10° NNW 12:05:50 59° WSW 12:11:17 10° S
COSMOS 2441 4.3 12:03:17 10° N 12:08:02 65° WNW 12:10:09 32° SW
Meteor 1-31 Rocket 4.5 12:05:55 10° NNE 12:09:31 34° E 12:13:06 10° SSE
STARLINK-1017 3.5 12:09:19 49° SW 12:10:23 86° NW 12:14:31 10° NE
Lacrosse 5 rocket 2.4 12:10:59 26° NW 12:11:15 27° NW 12:14:37 10° NNE
Cosmos 2242 Rocket 4.2 12:12:34 35° W 12:12:46 36° WNW 12:17:00 10° N
Cosmos 158 Rocket 4.4 12:09:50 10° NW 12:14:37 36° W 12:16:58 24° SSW
Cosmos 1980 4.2 12:09:22 10° NNW 12:15:01 62° ENE 12:20:35 10° SE
STARLINK-81 3.5 12:18:03 41° WSW 12:19:21 74° NW 12:23:23 10° NE
ASTRO E2 4.0 12:18:30 24° SSW 12:19:23 26° S 12:22:43 10° ESE
STARLINK-54 3.6 12:19:55 39° WSW 12:21:14 64° NW 12:25:14 10° NE
BREEZE M DEB (TANK) 2.3 12:22:20 42° NW 12:22:29 43° NNW 12:25:29 10° NE
STARLINK-77 3.5 12:21:16 37° WSW 12:22:42 69° NW 12:26:43 10° NE
STARLINK-25 3.6 12:22:52 36° WSW 12:24:21 66° NW 12:28:22 10° NE
CENTAUR R/B 4.0 12:19:44 10° S 12:24:41 32° ESE 12:30:19 10° NE
STARLINK-1048 3.7 12:23:40 34° WSW 12:25:19 65° NW 12:29:27 10° NE
STARLINK-71 3.7 12:24:42 34° WSW 12:26:13 57° NW 12:30:12 10° NE
STARLINK-1023 3.8 12:25:07 32° WSW 12:26:50 58° NW 12:30:59 10° NE
STARLINK-79 3.6 12:26:01 33° WSW 12:27:38 62° NW 12:31:39 10° NE
Cosmos 2333 Rocket 2.7 12:22:50 10° NW 12:27:54 35° WSW 12:32:57 10° SSW
SL-16 R/B 4.4 12:23:10 10° N 12:27:58 28° ENE 12:32:45 10° ESE
CZ-4B R/B 4.4 12:24:54 10° NNE 12:28:57 60° E 12:32:48 10° S
STARLINK-78 3.7 12:27:39 31° WSW 12:29:21 59° NW 12:33:20 10° NE
Okean 1 3.8 12:28:34 29° WSW 12:29:51 38° W 12:33:34 10° N
STARLINK-1049 3.8 12:28:26 30° WSW 12:30:17 59° NW 12:34:23 10° NE
STARLINK-57 3.8 12:29:22 30° WSW 12:31:06 55° NW 12:35:04 10° NE
SeaSat 1 2.6 12:26:22 10° S 12:31:07 49° WSW 12:35:55 10° NW
Nadezhda 4 Rocket 4.4 12:25:55 10° S 12:32:06 67° E 12:38:23 10° NNE
STARLINK-49 3.8 12:30:48 29° WSW 12:32:38 56° NW 12:36:36 10° NE
Cosmos 1975 2.7 12:30:01 10° N 12:34:01 81° W 12:38:01 10° S
STARLINK-27 3.8 12:32:23 27° WSW 12:34:17 54° NW 12:38:14 10° NE
Cosmos 2279 Rocket 3.9 12:28:17 10° NNW 12:34:28 68° W 12:40:39 10° S
STARLINK-1051 3.9 12:33:13 26° WSW 12:35:16 54° NW 12:39:21 10° NE
STARLINK-74 3.8 12:33:57 26° WSW 12:35:55 52° NW 12:39:52 10° NE
Cosmos 1515 3.6 12:32:31 12° SSW 12:35:59 62° W 12:39:45 10° N
BREEZE-M DEB (TANK) 2.6 12:31:54 10° NW 12:36:26 76° SW 12:40:42 10° SE
Cosmos 1743 3.2 12:32:52 10° NNW 12:36:27 36° W 12:40:02 10° SSW
STARLINK-39 3.9 12:35:34 25° WSW 12:37:36 50° NW 12:41:32 10° NE
Cosmos 1544 3.1 12:35:08 10° N 12:38:46 82° E 12:42:24 10° S
SL-4 R/B 2.1 12:35:08 10° NW 12:39:11 81° NE 12:43:35 10° SE
STARLINK-31 3.9 12:37:11 24° W 12:39:17 49° NW 12:43:12 10° NE
STARLINK-69 4.1 12:39:00 23° W 12:41:09 44° NW 12:45:01 10° NE
STARLINK-21 4.0 12:40:24 22° W 12:42:38 45° NW 12:46:32 10° NE
NOSS 0 Rocket 4.0 12:38:17 10° NNW 12:44:17 56° WSW 12:50:16 10° S
STARLINK-45 4.2 12:42:15 21° W 12:44:32 40° NW 12:48:21 10° NE
STARLINK-1028 4.1 12:42:48 21° W 12:45:16 45° NW 12:49:16 10° NE
GPS 2-04 Rocket1 3.0 12:43:10 22° WSW 12:45:17 45° S 12:48:47 10° ESE
Cosmos 2180 Rocket 4.4 12:39:20 10° NNW 12:45:29 71° W 12:51:41 10° S
STARLINK-70 4.2 12:43:43 20° W 12:46:04 41° NW 12:49:54 10° NE
STARLINK-1007 4.2 12:44:05 20° W 12:46:39 43° NW 12:50:41 10° NE
STARLINK-76 4.2 12:45:10 19° W 12:47:36 41° NW 12:51:27 10° NE
H-2A R/B 2.6 12:44:28 10° NNE 12:48:41 77° ESE 12:52:42 10° S
Meteor 2-4 Rocket 3.8 12:42:54 10° S 12:48:49 86° WNW 12:54:47 10° N
STARLINK-23 4.2 12:46:45 19° W 12:49:16 40° NW 12:53:06 10° NE
STARLINK-1021 4.3 12:47:34 18° W 12:50:15 41° NW 12:54:12 10° NE
STARLINK-32 4.3 12:48:22 18° W 12:50:57 39° NW 12:54:46 10° NE
IDEFIX/ARIANE 42P 4.2 12:48:43 10° NNW 12:51:46 16° WNW 12:53:43 13° W
STARLINK-40 4.3 12:49:57 17° W 12:52:36 38° NW 12:56:23 10° NE
Gblst 52 Del rocket 4.4 12:47:57 10° NW 12:53:59 76° NE 12:59:31 10° ESE
STARLINK-44 4.4 12:51:32 16° W 12:54:15 37° NNW 12:58:01 10° NE
STARLINK-1019 4.4 12:52:22 16° W 12:55:17 38° NNW 12:59:10 10° NE
STARLINK-37 4.5 12:53:16 15° W 12:56:03 34° NNW 12:59:46 10° NE
CZ-4B R/B 3.0 12:52:13 10° N 12:56:23 83° WNW 13:00:44 10° SSW
FENGYUN 3A 4.1 12:51:14 10° NNE 12:56:36 65° E 13:01:56 10° S
STARLINK-36 4.4 12:54:41 15° W 12:57:34 35° NNW 13:01:18 10° NE
Cosmos 1782 Rocket 4.3 12:54:31 10° NNW 12:58:18 30° W 13:02:03 10° SSW
CZ-2C R/B 3.0 12:54:16 10° N 12:58:22 32° WNW 13:02:25 10° SW
Cosmos 2237 Rocket 2.2 12:53:09 10° NNW 12:58:43 61° WSW 13:04:18 10° S
STARLINK-1031 4.1 12:56:04 10° SW 13:00:09 59° SE 13:04:16 10° NE
ALOS 2.5 12:56:35 10° NNE 13:01:15 74° ESE 13:05:54 10° S
Cosmos 1484 Rocket 2.7 12:57:40 10° N 13:01:33 73° WNW 13:05:19 10° SSW
STARLINK-1060 4.3 12:58:27 10° SSW 13:02:29 54° SE 13:06:32 10° ENE
ATLAS CENTAUR R/B 1.2 13:05:07 15° W 13:06:18 29° NW 13:08:15 10° NNE
Cosmos 2221 Rocket 3.9 13:02:02 10° SSW 13:06:20 45° W 13:10:38 10° N
STARLINK-1030 4.1 13:03:22 10° SW 13:07:27 60° SE 13:11:32 10° NE
Cosmos 1356 3.9 13:07:22 10° N 13:10:47 66° E 13:14:11 10° SSE
Cosmos 2219 4.2 13:06:38 10° WSW 13:11:32 29° WNW 13:16:30 10° N
ATLAS 3B R/B 3.9 13:05:49 10° S 13:12:06 44° ESE 13:18:18 10° NE
USA 238 DEB 3.8 13:05:50 10° SW 13:12:21 57° NW 13:19:06 10° NNE
STARLINK-1020 3.9 13:08:20 10° SW 13:12:26 67° SE 13:16:33 10° NE
USA 238 3.8 13:05:57 10° SW 13:12:27 58° NW 13:19:13 10° NNE
GENESIS II 4.3 13:10:27 10° SSW 13:14:29 88° WNW 13:18:36 10° NNE
COSMO-SKYMED 1 2.7 13:11:33 10° SSE 13:15:53 86° ENE 13:20:14 10° NNW
STARLINK-1052 3.8 13:13:18 10° SW 13:17:24 75° SE 13:21:33 10° NE
Cosmos 2297 Rocket 3.0 13:12:39 10° WSW 13:17:45 34° WNW 13:22:52 10° N
Sich 1 Rocket 4.5 13:14:30 10° NNW 13:18:12 27° W 13:21:51 10° SSW
Cosmos 389 Rocket 3.4 13:16:13 10° SW 13:19:26 30° WNW 13:22:39 10° NNW
METEOR-M 4.1 13:14:30 10° N 13:19:52 81° WNW 13:25:12 10° SSW
